LUCH-5A

Last updated on Sat Sep 05 2026 00:03:03 GMT+0000 (Coordinated Universal Time)

1 37951U 11074B 26247.63867764 -.00000058 00000+0 00000+0 0 9998 2 37951 8.9488 72.6194 0003972 119.3308 188.6666 1.00271524 53842
UTC large
Height (km)
Speed (km/s)
/
Latitude / Longitude
Inclination (degrees)
Orbital Period (minutes)
Azimuth
Elevation
Range (km)
Doppler Factor

Next 0 passes for location: London (51.5072 / 0.1276)

No passes found over London.
LUCH-5A